SCP
0 0 0 0 0 0 0 0 0 0 0 0 0 0 0 0 0 0 0 0 0 0 0 0 0 0 0 0 0 0 0 0 0 0 0 0 0 0 0 0 0 0 0
0 0 0 0 0 0 0 0 0 0 0 0 0 0 0 0 0 0 0 0 0 0 0 0 0 0 0 0 0 0 0 0 0 0 0 0 0 0 0 0 0 0 0
0 0 0 0 0 0 0 0 0 0 0 0 0 0 0 0 0 0 0 0 0 0 0 0 0 0 0 0 0 0 0 0 0 0 0 0 0 0 0 0 0 0 0
0 0 0 0 0 0 0 0 0 0 0 0 0 0 0 0 0 0 0 0 0 0 0 0 0 0 0 0 0 0 0 0 0 0 0 0 0 0 0 0 0 0 0
0 0 0 0 0 0 0 0 0 0 0 0 0 0 0 0 0 0 0 0 0 0 0 0 0 0 0 0 0 0 0 0 0 0 0 0 0 0 0 0 0 0 0
0 0 0 0 0 0 0 0 0 0 0 0 0 0 0 0 0 0 0 0 0 0 0 0 0 0 0 0 0 0 0 0 0 0 0 0 0 0 0 0 0 0 0
0 0 0 0 0 0 0 0 0 0 0 0 0 0 0 0 0 0 0 0 0 0 0 0 0 0 0 0 0 0 0 0 0 0 0 0 0 0 0 0 0 0 0
0 0 0 0 0 0 0 0 0 0 0 0 0 0 0 0 0 0 0 0 0 0 0 0 0 0 0 0 0 0 0 0 0 0 0 0 0 0 0 0 0 0 0
0 0 0 0 0 0 0 0 0 0 0 0 0 0 0 0 0 0 0 0 0 0 0 0 0 0 0 0 0 0 0 0 0 0 0 0 0 0 0 0 0 0 0
0 0 0 0 0 0 0 0 0 0 0 0 0 0 0 0 0 0 0 0 0 0 0 0 0 0 0 0 0 0 0 0 0 0 0 0 0 0 0 0 0 0 0
0 0 0 0 0 0 0 0 0 0 0 0 0 0 0 0 0 0 0 0 0 0 0 0 0 0 0 0 0 0 0 0 0 0 0 0 0 0 0 0 0 0 0
0 0 0 0 0 0 0 0 0 0 0 0 0 0 0 0 0 0 0 0 0 0 0 0 0 0 0 0 0 0 0 0 0 0 0 0 0 0 0 0 0 0 0
0 0 0 0 0 0 0 0 0 0 0 0 0 0 0 0 0 0 0 0 0 0 0 0 0 0 0 0 0 0 0 0 0 0 0 0 0 0 0 0 0 0 0
0 0 0 0 0 0 0 0 0 0 0 0 0 0 0 0 0 0 0 0 0 0 0 0 0 0 0 0 0 0 0 0 0 0 0 0 0 0 0 0 0 0 0
0 0 0 0 0 0 0 0 0 0 0 0 0 0 0 0 0 0 0 0 0 0 0 0 0 0 0 0 0 0 0 0 0 0 0 0 0 0 0 0 0 0 0
0 0 0 0 0 0 0 0 0 0 0 0 0 0 0 0 0 0 0 0 0 0 0 0 0 0 0 0 0 0 0 0 0 0 0 0 0 0 0 0 0 0 0
0 0 0 0 0 0 0 0 0 0 0 0 0 0 0 0 0 0 0 0 0 0 0 0 0 0 0 0 0 0 0 0 0 0 0 0 0 0 0 0 0 0 0
0 0 0 0 0 0 0 0 0 0 0 0 0 0 0 0 0 0 0 0 0 0 0 0 0 0 0 0 0 0 0 0 0 0 0 0 0 0 0 0 0 0 0
0 0 0 0 0 0 0 0 0 0 0 0 0 0 0 0 0 0 0 0 0 0 0 0 0 0 0 0 0 0 0 0 0 0 0 0 0 0 0 0 0 0 0
0 0 0 0 0 0 0 0 0 0 0 0 0 0 0 0 0 0 0 0 0 0 0 0 0 0 0 0 0 0 0 0 0 0 0 0 0 0 0 0 0 0 0
0 0 0 0 0 0 0 0 0 0 0 0 0 0 0 0 0 0 0 0 0 0 0 0 0 0 0 0 0 0 0 0 0 0 0 0 0 0 0 0 0 0 0
0 0 0 0 0 0 0 0 0 0 0 0 0 0 0 0 0 0 0 0 0 0 0 0 0 0 0 0 0 0 0 0 0 0 0 0 0 0 0 0 0 0 0
0 0 0 0 0 0 0 0 0 0 0 0 0 0 0 0 0 0 0 0 0 0 0 0 0 0 0 0 0 0 0 0 0 0 0 0 0 0 0 0 0 0 0
0 0 0 0 0 0 0 0 0 0 0 0 0 0 0 0 0 0 0 0 0 0 0 0 0 0 0 0 0 0 0 0 0 0 0 0 0 0 0 0 0 0 0
0 0 0 0 0 0 0 0 0 0 0 0 0 0 0 0 0 0 0 0 0 0 0 0 0 0 0 0 0 0 0 0 0 0 0 0 0 0 0 0 0 0 0
0 0 0 0 0 0 0 0 0 0 0 0 0 0 0 0 0 0 0 0 0 0 0 0 0 0 0 0 0 0 0 0 0 0 0 0 0 0 0 0 0 0 0
Wind_Speed
13 13 13 12 12 12 11 10 9 8 8 7 7 6 5 4 3 2 2 2 3 4 5 6 7 8 8 8 8 8 8 9 11 11 10 11 13 14 14 14 14 14 13
13 13 13 12 12 11 11 10 8 8 7 6 6 5 4 4 3 2 3 3 4 5 6 7 8 7 9 9 8 9 9 9 11 13 11 11 13 14 14 14 13 12 13
13 13 12 11 11 11 10 9 8 7 6 6 5 4 3 2 2 2 3 5 6 7 7 8 9 9 10 9 9 9 8 9 9 11 12 11 11 11 13 13 14 12 13
12 12 12 11 10 10 9 8 7 7 6 5 4 3 3 2 3 5 6 6 7 8 8 9 9 9 10 11 9 10 10 10 10 10 11 11 11 12 11 10 11 10 11
11 11 11 10 10 9 8 8 7 6 5 4 3 3 3 2 6 9 9 8 8 9 9 9 9 9 11 10 10 11 12 10 10 10 10 11 11 10 10 9 10 10 11
10 10 10 9 9 8 7 6 6 5 4 3 3 3 4 6 8 8 10 11 10 10 10 9 10 9 8 11 13 15 15 15 13 12 11 11 12 12 10 9 9 10 8
10 9 8 8 8 7 6 6 5 4 4 4 4 4 4 6 6 7 10 12 11 9 10 9 8 8 10 9 11 14 15 16 16 13 13 13 13 12 11 11 10 11 11
9 8 7 7 7 6 6 6 4 4 3 4 4 5 4 5 5 7 13 12 9 9 9 9 9 10 8 10 14 15 14 12 11 11 11 12 12 12 11 11 12 11 11
8 7 7 6 6 6 6 5 4 4 4 4 4 5 5 3 4 7 13 11 8 9 10 9 9 10 8 11 14 14 14 12 9 10 12 15 16 16 13 9 9 8 8
7 7 7 6 5 5 5 4 4 3 4 4 4 4 5 5 3 4 12 9 8 9 9 9 6 6 11 13 13 13 12 12 13 13 11 10 9 8 9 8 7 7 6
7 6 6 5 4 4 4 3 3 4 4 4 4 4 4 4 2 2 8 8 9 9 8 8 7 9 13 14 14 11 11 13 12 10 9 8 8 6 6 6 6 6 6
6 5 5 4 3 3 3 3 3 4 4 4 4 5 4 4 4 5 7 9 10 10 8 8 8 12 15 16 11 10 14 13 7 7 7 7 7 7 7 7 7 6 5
4 4 3 3 3 3 3 3 3 3 4 5 5 5 6 6 4 4 8 10 11 10 8 10 12 14 14 10 7 11 11 7 6 6 7 7 6 7 7 7 7 7 6
3 3 2 2 2 2 3 4 4 5 5 5 5 6 6 6 7 8 9 9 9 8 8 9 10 10 9 8 8 7 6 6 6 6 7 6 6 6 6 6 6 6 6
3 2 2 3 3 2 2 4 6 6 6 7 7 6 7 7 9 12 10 9 9 9 11 8 7 8 8 8 8 8 7 7 6 6 6 7 6 6 6 6 6 6 6
1 2 3 3 3 3 2 3 4 3 2 0 3 6 6 6 10 11 11 12 12 12 9 6 7 7 8 8 8 8 8 7 7 6 6 6 6 6 6 7 7 7 7
3 4 4 4 3 3 3 4 3 3 4 4 1 3 6 9 10 11 12 13 10 9 5 6 7 7 8 8 8 8 8 7 7 7 6 6 6 6 7 7 8 7 8
3 1 3 2 3 4 4 4 4 4 3 2 2 4 7 9 9 10 12 9 6 6 6 6 7 7 8 8 8 8 8 7 7 7 6 6 7 7 7 7 8 9 8
4 3 3 3 3 3 4 4 4 5 5 5 5 5 8 8 6 6 8 5 6 6 7 7 7 7 8 8 8 8 8 7 8 7 7 7 6 7 7 7 7 8 8
1 4 4 3 2 3 3 4 4 4 5 5 5 6 7 6 6 6 6 6 6 6 7 7 8 8 8 8 8 8 8 8 8 8 7 7 7 7 7 8 8 8 8
1 4 4 3 3 4 4 4 4 4 5 4 4 5 7 5 5 6 5 6 6 7 7 8 8 8 8 8 8 9 10 8 8 8 8 7 8 7 7 7 8 8 7
2 2 2 4 4 5 4 4 4 4 4 5 4 4 5 5 5 5 6 6 6 6 6 7 7 8 8 8 8 8 9 9 9 9 8 8 7 8 8 8 8 7 7
2 3 3 3 3 3 1 4 4 4 4 5 4 4 5 5 5 5 6 6 6 7 6 6 7 8 8 8 7 7 8 9 9 9 8 8 7 8 8 9 10 11 11
4 3 3 3 3 3 4 4 4 4 5 5 5 5 5 5 5 6 6 6 7 7 7 7 7 10 12 10 8 8 9 9 10 7 9 8 8 8 8 8 9 9 9
4 3 3 3 3 3 4 4 5 5 5 5 5 5 5 5 5 6 6 6 7 7 9 8 8 9 12 13 12 11 10 9 8 9 7 7 8 8 8 9 8 9 9
4 4 3 3 4 4 4 4 5 5 5 5 5 5 5 5 6 7 7 8 8 8 8 8 11 12 13 11 13 12 10 9 10 10 8 6 8 9 9 7 9 9 10
Wind_Direction
82 84 86 87 90 92 93 95 97 97 97 95 95 96 96 94 84 59 25 5 338 329 315 310 305 307 302 304 296 291 289 291 292 296 297 300 299 293 294 293 292 290 285
85 86 86 87 89 91 92 93 96 94 94 97 98 95 88 75 55 25 357 344 328 319 315 311 308 307 304 293 297 297 297 296 291 295 296 295 293 291 289 290 290 288 289
89 90 90 91 92 92 91 89 89 91 90 89 88 83 75 60 29 358 337 326 321 317 316 312 310 306 300 300 299 294 294 292 289 289 292 296 293 292 294 291 292 290 290
90 90 88 87 88 88 86 84 82 83 84 81 77 70 51 22 6 349 334 327 319 314 310 306 303 303 303 305 298 295 297 297 293 290 292 294 292 295 295 295 296 297 294
91 90 89 87 84 81 79 78 77 77 77 70 63 50 17 19 24 357 335 323 317 311 307 305 303 306 299 295 301 306 304 299 296 294 293 295 297 300 299 301 299 298 297
92 90 88 87 85 83 82 81 77 70 62 52 39 22 12 43 42 5 334 322 314 308 310 310 304 288 289 283 279 286 290 291 295 295 293 292 297 299 303 301 299 297 296
92 92 91 91 88 87 87 82 73 63 49 33 21 10 21 70 37 353 335 313 307 312 312 309 307 313 304 310 309 295 284 272 269 281 288 292 299 303 303 300 296 294 292
99 97 95 95 93 87 78 69 59 45 32 19 9 359 359 68 43 346 328 301 305 312 310 308 309 310 334 336 316 302 299 299 297 292 295 299 300 302 300 294 290 289 289
100 99 96 93 88 80 71 61 46 29 18 3 10 354 346 53 57 348 328 313 315 317 315 314 313 315 355 330 308 302 305 309 301 288 284 282 282 280 279 286 288 289 295
100 97 91 84 75 67 59 43 37 18 6 352 5 352 343 354 55 347 330 318 323 319 317 313 313 337 329 315 310 308 311 319 320 317 309 303 298 293 275 275 285 290 296
100 95 88 81 73 60 51 37 16 5 6 355 352 350 351 349 0 27 336 329 329 318 314 316 330 343 320 310 303 304 317 313 306 310 315 322 328 327 322 313 300 291 293
101 94 84 65 46 52 36 22 9 351 347 354 353 350 353 349 349 360 325 313 309 309 313 323 331 325 311 303 303 314 308 301 305 317 326 335 337 336 330 327 321 309 288
95 82 73 61 45 26 7 5 357 357 353 356 355 354 350 345 356 353 326 315 304 306 318 318 308 302 302 302 307 306 305 316 334 335 338 341 342 338 337 337 339 336 329
77 66 50 30 30 39 355 7 6 5 0 357 357 352 345 343 357 352 339 331 327 323 329 318 304 298 303 319 320 326 335 344 343 343 342 343 347 349 352 350 346 348 346
61 37 12 19 20 1 32 35 11 36 23 349 352 352 345 341 348 332 323 329 332 333 324 320 339 344 344 344 345 346 344 349 354 356 351 349 352 0 0 358 359 359 359
12 15 6 14 18 5 25 107 112 45 113 285 337 336 339 345 328 324 326 324 320 318 321 341 344 342 341 340 341 341 344 350 352 356 2 359 0 5 6 9 12 9 8
354 358 350 5 14 11 14 15 59 148 189 190 186 353 345 339 334 333 334 328 320 321 340 348 341 340 338 338 338 341 344 350 353 2 11 8 10 13 14 18 17 16 16
329 37 323 3 10 9 18 20 20 16 21 35 86 41 357 343 336 335 332 331 347 354 354 342 338 337 336 337 339 344 349 357 6 14 20 20 20 24 24 27 27 23 23
328 355 3 5 1 17 21 21 24 23 19 13 10 18 358 338 326 337 337 356 352 346 344 341 340 339 337 339 345 349 357 7 15 19 26 30 32 32 30 31 36 30 28
60 56 333 325 3 25 27 24 29 25 25 19 14 8 352 348 360 2 360 355 348 344 343 340 339 340 342 347 352 358 5 15 21 26 30 34 37 38 39 39 38 36 35
26 122 201 277 29 31 28 30 30 27 28 25 24 19 349 344 357 356 352 347 344 341 340 337 337 344 351 354 359 2 9 18 25 26 32 37 39 41 44 45 46 46 45
14 56 53 37 46 39 22 34 35 33 25 26 24 25 354 351 2 359 350 344 338 335 336 334 336 344 351 353 355 357 7 17 19 20 26 36 41 42 44 46 48 49 48
49 62 72 69 73 92 25 43 36 32 28 28 24 18 8 1 358 358 349 343 337 338 343 344 343 350 354 352 353 358 7 8 5 6 15 31 37 40 42 46 50 55 49
67 63 68 75 64 52 46 45 43 38 34 31 29 22 10 2 0 359 353 346 344 348 352 354 355 356 358 0 1 13 15 355 341 353 16 29 37 40 44 46 48 48 56
65 59 62 65 54 51 52 47 47 43 39 36 31 24 15 10 5 1 356 353 352 358 2 6 1 3 5 11 13 11 358 339 333 333 348 27 37 37 41 46 48 49 48
64 58 56 61 59 48 49 52 52 46 43 40 37 30 22 17 12 8 5 2 1 6 9 11 10 18 15 14 14 4 350 344 341 329 327 24 41 34 30 41 46 50 52